RH
82 80 79 77 73 75 76 75 74 75 81 81 80 83 89 94 94 95 93 88 91 91 92 92 93 91 96 95 96 96 97 97 99 99 98 96 98 97 93 95 92 93 91
78 79 80 77 76 77 76 75 72 74 71 71 72 77 83 88 92 89 90 83 89 88 89 90 92 86 94 93 95 96 97 96 95 99 97 97 96 95 92 93 81 68 67
79 81 82 82 82 84 84 82 81 84 85 85 86 89 91 93 95 96 96 88 87 88 89 90 91 91 97 98 98 98 98 92 95 93 96 93 90 85 88 85 77 72 61
83 87 91 94 94 96 96 94 93 92 92 95 94 94 95 95 96 97 96 95 95 97 97 96 96 96 96 96 96 95 92 95 95 96 94 94 86 80 81 81 79 79 73
89 91 94 94 96 97 96 95 95 95 95 96 95 94 94 91 90 92 90 91 92 96 98 96 95 88 82 86 93 97 96 96 92 92 90 86 86 82 84 85 81 85 81
92 94 92 85 85 92 88 87 87 89 90 91 93 86 86 79 85 91 89 91 94 98 98 95 90 86 84 78 77 76 82 93 98 98 96 95 91 89 87 86 90 97 94
93 92 88 82 86 88 86 89 92 96 96 98 94 86 89 82 83 87 92 98 96 97 99 98 91 80 85 86 74 72 72 68 75 89 90 91 89 85 89 96 91 98 96
94 94 88 86 90 92 92 97 98 98 99 100 100 100 100 86 84 86 89 95 97 96 95 93 87 86 86 83 88 90 90 75 76 77 88 88 86 80 84 86 92 93 92
96 96 92 90 96 97 98 99 96 98 100 99 95 92 92 89 71 73 82 90 89 90 84 86 83 86 66 68 78 85 78 71 63 68 67 64 66 65 69 84 98 98 93
94 96 93 96 97 98 98 99 100 97 96 93 94 91 79 88 69 70 76 76 84 81 78 70 64 71 60 59 79 81 81 76 85 89 82 71 77 84 78 84 95 96 98
92 94 96 97 97 98 100 99 97 99 97 97 92 92 90 83 79 65 63 69 71 75 70 69 69 64 58 56 65 78 72 73 85 84 82 88 91 92 93 94 87 97 97
95 98 98 98 91 93 94 93 97 97 95 94 93 92 91 87 63 59 61 64 61 64 69 74 76 64 52 56 66 62 62 73 81 81 89 96 96 97 96 96 90 94 90
96 97 96 90 90 89 93 98 97 94 92 91 82 87 86 78 84 64 58 56 60 66 67 70 64 58 53 65 62 61 70 78 80 96 98 98 98 98 96 90 91 92 94
92 94 93 89 90 92 93 93 91 83 76 67 64 65 72 75 78 82 73 79 67 67 66 83 62 56 58 66 68 71 74 79 91 97 98 98 92 94 82 94 97 94 97
86 89 93 94 94 98 93 91 80 70 60 55 58 60 69 72 72 74 74 73 84 75 76 66 60 68 78 79 81 84 89 88 97 92 88 92 90 90 92 95 96 98 99
94 94 92 92 97 94 80 69 59 55 58 54 50 58 57 54 57 65 64 60 61 62 73 70 74 93 96 84 86 90 92 88 93 90 94 95 96 96 96 99 99 99 98
91 95 92 94 87 85 74 78 87 75 59 60 60 60 59 62 58 63 62 60 61 63 76 84 95 97 97 97 98 98 98 95 96 97 97 96 96 97 94 99 99 99 97
89 86 89 74 69 81 79 78 81 84 84 78 65 63 59 58 58 64 64 63 74 56 91 91 90 90 95 97 97 98 97 96 95 95 97 96 97 97 99 99 98 99 97
85 82 74 67 63 67 71 76 77 77 71 62 62 60 61 58 59 59 61 84 91 86 88 90 88 92 95 96 96 97 97 98 97 95 96 97 95 98 98 98 98 91 90
82 81 70 62 60 68 69 70 74 76 77 71 56 50 54 73 88 86 89 95 95 92 89 88 87 91 94 95 96 97 98 97 96 95 92 92 89 97 97 96 96 96 95
80 77 75 61 57 60 64 63 67 68 66 60 51 42 50 66 73 79 81 86 87 91 92 89 91 93 94 95 96 96 97 97 97 97 95 87 87 93 97 95 94 94 95
80 73 72 69 58 60 57 57 56 52 50 47 46 43 50 54 69 70 73 74 80 84 84 85 91 92 91 93 93 95 96 96 96 96 95 89 86 89 95 95 93 94 94
80 73 66 69 61 57 56 54 50 47 45 44 44 42 42 53 66 78 78 79 84 85 83 86 86 90 93 94 95 94 95 94 92 95 96 95 95 94 94 95 93 94 93
79 76 71 66 63 56 54 54 49 49 45 43 43 42 43 44 48 58 68 75 78 77 83 84 86 88 90 92 95 96 96 94 96 96 97 97 96 94 94 92 92 92 92
84 80 76 74 67 64 54 52 52 48 45 44 41 42 45 48 52 64 69 77 81 82 80 84 87 88 88 89 91 93 96 88 90 95 96 96 96 95 94 94 92 91 92
88 79 75 72 76 75 76 62 58 60 61 57 54 56 56 61 63 74 79 82 82 81 82 86 88 89 90 91 91 92 85 81 82 79 84 95 94 92 93 94 93 93 92
Wind_Speed
5 5 6 5 6 5 5 5 5 5 5 6 5 6 6 5 5 5 6 5 6 5 4 4 4 4 3 2 3 2 2 1 2 1 2 2 2 2 1 2 1 1 1
5 6 5 6 5 6 6 6 5 6 6 5 5 6 6 5 5 6 6 6 5 5 4 5 4 3 4 4 3 4 3 2 2 3 1 1 3 2 2 1 0 1 3
5 5 5 6 5 5 5 5 5 5 5 6 6 6 6 6 6 6 6 7 8 7 6 6 5 5 5 4 4 3 1 2 3 2 2 1 2 2 2 1 2 2 3
5 5 6 5 5 5 5 5 6 5 6 6 6 6 6 6 7 7 8 8 7 7 7 6 6 6 5 4 4 4 3 4 4 4 3 2 2 1 1 1 0 1 2
5 5 5 5 6 5 5 5 6 6 6 5 5 6 5 6 5 8 8 8 9 9 7 6 4 7 9 7 3 4 4 3 3 2 2 2 1 2 1 1 2 2 3
5 5 5 5 6 5 5 5 5 5 5 5 5 7 7 7 13 13 10 9 8 7 5 5 7 9 8 9 9 9 5 3 2 2 1 2 1 1 1 1 1 2 3
6 5 5 6 6 5 5 6 5 5 5 6 5 6 7 9 14 15 15 7 7 6 4 3 4 4 6 5 7 8 8 8 4 3 2 1 1 2 3 1 0 1 3
6 5 5 6 6 6 6 5 4 4 5 5 6 6 5 8 13 13 14 6 5 5 4 4 5 4 3 5 5 4 4 4 3 2 3 2 3 3 3 4 3 3 4
6 5 5 6 7 6 6 5 4 5 5 4 4 5 6 6 12 12 9 5 5 5 4 4 4 4 5 6 4 3 3 3 4 6 3 2 4 5 5 3 1 2 3
6 5 6 7 7 7 6 5 2 3 4 4 4 4 7 3 8 8 6 3 4 3 3 4 5 3 5 4 3 2 1 2 2 4 4 4 6 5 7 2 3 3 2
7 7 7 7 7 7 6 4 4 4 4 3 5 3 4 4 4 7 6 3 3 2 2 1 2 5 6 5 2 1 2 1 3 2 2 2 3 3 3 3 3 4 2
7 7 7 7 6 6 7 5 4 5 5 4 4 2 2 3 4 4 5 5 4 2 1 0 2 5 4 4 1 4 2 4 1 2 2 2 1 2 2 2 3 4 3
8 8 7 7 6 6 7 5 4 5 4 4 3 2 2 0 2 2 1 1 2 2 1 3 6 5 3 3 3 3 4 2 1 1 1 1 1 2 3 3 3 4 4
9 9 8 7 7 5 4 4 4 4 4 4 4 4 2 2 2 2 1 2 2 1 2 3 3 2 2 2 1 2 1 1 2 1 1 2 2 2 4 2 2 3 3
9 8 8 6 7 6 4 5 4 4 5 4 4 4 4 4 4 6 4 2 2 3 2 1 1 0 1 1 1 1 0 0 1 2 2 2 3 3 3 2 2 2 3
8 7 7 6 5 5 4 2 8 9 11 10 7 7 4 5 6 8 6 4 4 3 1 1 1 1 2 2 2 2 1 2 1 1 2 3 3 3 4 2 0 1 5
8 8 6 7 5 5 4 4 5 2 3 6 8 9 8 5 7 7 6 5 5 4 2 2 2 2 2 2 2 2 2 2 1 2 3 4 4 4 6 2 3 2 5
7 14 7 6 5 5 5 5 4 4 4 3 7 7 7 7 8 9 8 5 1 1 1 2 3 3 3 3 2 2 3 3 3 4 4 4 4 4 2 3 3 4 6
7 6 6 6 6 8 5 4 4 4 4 4 2 4 8 11 10 10 12 4 3 3 3 3 4 3 3 3 3 3 4 4 4 4 4 4 4 2 3 4 5 12 12
7 12 10 6 5 5 5 5 5 5 5 4 4 4 2 4 1 3 3 3 3 4 4 4 4 4 4 4 4 3 3 4 3 4 5 5 6 4 4 5 6 6 6
6 6 13 6 7 7 7 7 6 6 6 6 6 5 11 5 6 5 4 4 5 5 5 5 4 4 4 4 4 4 4 4 4 4 4 6 7 6 4 6 7 7 7
7 8 7 7 6 7 8 6 6 7 6 6 5 5 14 7 5 5 5 6 5 5 5 5 4 5 5 5 5 4 5 5 5 5 5 6 7 7 6 7 7 7 7
8 9 8 7 7 11 8 7 7 7 7 7 5 5 5 6 5 6 6 6 5 5 4 4 5 5 4 5 4 5 5 6 7 5 5 6 6 7 7 8 8 8 8
9 10 10 9 8 8 8 9 8 11 8 7 6 6 6 6 6 7 6 5 4 5 4 5 5 7 5 5 4 5 5 6 4 6 7 6 7 9 8 9 9 10 10
9 9 10 10 9 10 8 8 8 8 8 7 7 7 6 6 6 6 5 5 5 5 6 5 5 6 8 9 8 8 9 17 11 10 7 9 10 12 10 9 10 10 12
9 10 10 9 9 10 10 9 8 8 8 7 7 7 7 7 7 6 5 5 5 5 6 5 6 9 9 8 9 11 16 18 15 18 11 9 10 10 9 12 15 10 13
Wind_Direction
81 73 66 50 41 51 57 47 42 41 38 50 55 59 58 62 76 83 82 91 100 85 67 87 80 71 66 36 61 60 72 97 136 92 77 46 82 105 121 87 111 273 257
88 85 74 66 51 50 46 41 42 53 45 54 59 66 64 59 52 78 83 79 91 86 81 85 78 82 77 60 58 49 44 19 124 130 122 99 68 93 77 76 282 279 237
91 87 73 70 68 59 50 46 50 58 53 53 58 61 60 59 66 62 74 74 72 72 65 68 61 63 59 62 70 71 21 51 47 104 105 74 82 78 76 47 266 290 287
102 95 84 77 78 68 55 50 52 54 61 57 57 65 63 64 69 70 77 76 77 70 66 68 71 79 84 80 68 63 55 64 63 79 80 89 101 129 141 132 321 354 323
109 107 111 99 85 78 67 63 57 60 67 65 73 71 77 75 82 91 85 93 90 77 56 58 80 97 91 91 92 62 60 64 65 70 83 94 82 73 67 0 67 329 292
126 128 129 120 114 105 98 89 77 67 72 78 76 89 90 89 95 101 110 96 75 74 72 51 51 46 39 65 66 73 74 87 52 70 38 75 62 82 55 63 59 39 315
139 142 136 129 120 114 114 109 93 83 82 69 68 85 82 92 97 96 94 86 100 101 90 67 62 43 52 47 35 45 38 45 89 137 102 154 176 188 113 71 224 152 248
146 144 140 134 125 122 116 109 89 80 79 84 73 61 67 95 95 97 93 78 86 79 84 86 77 40 24 54 42 46 33 28 16 94 126 179 207 182 176 165 190 241 276
157 151 145 144 140 131 119 118 102 98 82 72 69 76 80 78 97 99 98 94 89 79 76 77 84 38 32 51 53 32 22 11 9 44 91 359 356 333 217 151 237 75 315
162 152 142 138 141 139 138 119 75 79 89 84 78 72 98 98 107 108 107 110 94 94 61 44 43 71 23 7 81 51 14 302 10 8 2 8 20 13 56 87 145 145 191
143 138 137 140 137 134 119 112 116 104 104 88 94 68 73 87 92 104 107 94 115 100 69 33 3 347 342 344 104 155 237 239 2 26 9 8 30 33 38 51 133 140 191
140 142 142 139 140 139 132 124 131 136 134 137 129 105 53 25 79 86 105 106 111 115 126 118 299 311 332 325 71 261 313 79 58 31 31 14 28 359 334 333 281 241 223
150 149 149 144 142 149 148 155 147 154 155 169 174 162 195 96 1 31 54 121 98 115 153 269 313 301 332 351 310 305 83 72 49 54 11 284 220 244 271 298 311 307 272
159 159 156 154 152 147 158 165 158 166 177 190 191 196 202 220 236 217 117 39 6 27 311 330 298 291 225 258 310 27 57 166 161 171 215 237 248 296 304 257 267 278 266
166 164 163 163 169 175 188 178 185 213 188 186 208 182 182 222 223 199 179 194 202 241 144 5 337 350 304 290 264 244 265 291 146 233 277 302 289 276 270 258 256 287 262
172 171 173 166 166 174 172 197 224 222 215 219 210 184 211 215 195 194 213 235 248 261 109 234 268 244 231 243 245 258 248 256 224 296 281 274 274 276 276 280 268 237 283
178 169 174 172 168 171 175 179 174 205 155 194 198 201 194 194 203 202 220 231 249 270 176 209 216 215 241 235 231 209 225 226 182 242 256 265 271 270 306 297 276 254 283
172 179 172 170 177 175 185 188 172 172 191 228 241 210 209 212 218 220 225 231 278 281 173 199 225 231 230 223 225 223 247 222 227 245 247 253 251 264 263 268 258 263 274
182 180 173 174 180 188 179 176 182 191 205 212 216 247 222 225 225 230 232 201 201 214 217 228 224 228 235 231 228 228 229 237 224 234 245 241 263 232 264 257 264 289 291
187 190 182 182 184 181 176 186 197 205 205 210 214 219 193 211 207 219 210 187 199 221 221 226 234 226 225 227 230 225 245 257 244 229 252 266 270 236 247 264 266 270 270
186 191 198 190 191 192 193 202 201 195 207 210 221 204 209 195 216 216 214 217 221 225 225 224 229 231 224 223 221 228 228 245 244 238 230 267 273 269 242 258 265 266 269
189 191 192 192 194 195 206 200 198 206 209 212 217 216 226 216 206 217 220 225 222 221 217 219 223 223 220 212 214 220 226 237 242 243 242 245 261 261 259 261 263 263 265
191 192 196 196 194 207 210 200 205 206 211 212 206 207 205 221 214 212 221 223 215 222 220 213 228 237 225 224 210 213 219 234 235 219 237 246 248 255 251 258 260 262 260
197 200 204 205 199 206 206 207 206 209 207 207 204 208 210 212 217 222 219 216 213 224 221 223 224 228 234 234 225 219 223 237 225 232 226 240 249 263 259 259 258 259 262
200 204 205 208 208 211 212 210 204 204 205 204 207 208 208 208 213 216 214 210 213 217 230 225 225 232 239 240 241 236 237 257 246 226 222 226 237 241 245 250 254 260 262
206 209 210 208 207 208 210 214 211 201 204 207 207 206 205 207 213 210 208 207 212 222 227 226 230 234 240 245 246 251 261 264 264 266 255 239 237 243 240 244 249 251 262